Home > Time Zones > World Clock > Weather > Nigeria > Uyo > Past weeks

Flag for Nigeria Weather past 2 weeks in Uyo, Nigeria

Now
73 °F

Passing clouds.


Feels Like: 70 °F
Forecast: 73 / 88 °F
Wind: 5 mph from Southwest

Location: Malabo/Fernando Poo

Current Time: Aug 23, 2014 at 1:36:07 AM

Latest Report: Aug 23, 2014 at 1:00 AM


Visibility: N/A

Pressure: 29.98 "Hg

Humidity: 94%

Dew point: 72 °F

Location of UyoLocation

Historic Weather in Uyo — Graph

°F

Uyo temperature yesterday

Maximum temperature yesterday: 82 °F (at 12:00 PM)
Minimum temperature yesterday: 70 °F (at 3:00 AM)
Average temperature yesterday: 75 °F

Past Weeks' High & Low Weather Summary

 TemperatureHumidityPressure
High84 °F (Aug 19, 1:00 PM)100% (Aug 20, 7:00 AM)30.04 "Hg (Aug 20, 7:00 AM)
Low70 °F (Aug 22, 3:00 AM)66% (Aug 22, 12:00 PM)29.89 "Hg (Aug 8, 4:00 PM)
Average77 °F85%29.96 "Hg
* Reported Midnight between Aug 7 and Aug 8 — Midnight between Aug 22 and Aug 23, Uyo, Weather by CustomWeather, © 2014

Note: Actual official high and low records may vary slightly from our data, if they occured in-between our weather recording intervals... More about our weather records

Advertising

Uyo weather history for previous 24 hours

 ConditionsComfort  
Time TempWeatherWind HumidityBarometerVisibility
12:00 AM
Aug 23
73 °FPassing clouds.9 mph94%30.01 "HgN/A
11:30 PM
Aug 22
75 °FPassing clouds.12 mph89%30.01 "HgN/A
11:00 PM75 °FPassing clouds.8 mph83%30.01 "HgN/A
10:00 PM73 °FPassing clouds.6 mph94%29.98 "HgN/A
9:00 PM75 °FPartly cloudy.8 mph89%29.98 "HgN/A
8:00 PM75 °FPartly cloudy.7 mph89%29.95 "HgN/A
7:00 PM75 °FPartly cloudy.8 mph89%29.95 "HgN/A
6:00 PM77 °FPartly sunny.10 mph83%29.92 "HgN/A
5:00 PM79 °FPartly sunny.12 mph79%29.89 "HgN/A
4:00 PM79 °FPartly sunny.15 mph79%29.89 "HgN/A
3:00 PM81 °FBroken clouds.14 mph79%29.92 "HgN/A
2:00 PM79 °FBroken clouds.9 mph79%29.95 "HgN/A
1:00 PM81 °FPartly sunny.8 mph70%30.01 "HgN/A
12:30 PM81 °FPartly sunny.8 mph70%30.01 "HgN/A
12:00 PM82 °FPartly sunny.6 mph66%30.01 "HgN/A
11:00 AM81 °FPartly sunny.5 mph70%30.04 "HgN/A
10:00 AM77 °FPartly sunny.5 mph83%30.04 "HgN/A
9:00 AM75 °FPartly sunny.No wind89%30.01 "HgN/A
8:00 AM73 °FLight rain. Partly sunny.2 mph89%30.01 "HgN/A
7:00 AM70 °FLight rain. Partly sunny.3 mph94%29.98 "HgN/A
6:00 AM70 °FThunderstorms. Partly cloudy.6 mph94%29.95 "HgN/A
5:00 AM70 °FThunderstorms. Partly cloudy.7 mph94%29.95 "Hg4 mi
4:00 AM70 °FThunderstorms. Partly cloudy.8 mph94%29.95 "Hg4 mi
3:00 AM70 °FThunderstorms. Passing clouds.10 mph94%29.95 "Hg2 mi
2:00 AM72 °FThunderstorms. Passing clouds.6 mph94%29.98 "Hg2 mi
1:30 AM72 °FThunderstorms. Passing clouds.7 mph94%29.98 "Hg2 mi
1:00 AM72 °FStrong thunderstorms. Passing clouds.8 mph94%29.98 "Hg1 mi
Weather by CustomWeather, © 2014

See weather overviewHow to use our weather pages